Boise, ID

3:55 PM MDT on June 26, 2017 (GMT -0600)
Boise Air Term

Weather History for KBOI - November, 2013

Change the Weather History Date:

Tuesday, November 26, 2013

  Actual Average Record
Temperature  
Mean Temperature 37 °F 36 °F  
Max Temperature 46 °F 43 °F 65 °F (1998)
Min Temperature 27 °F 29 °F -3 °F (1985)
Degree Days  
Heating Degree Days 28 29  
Month to date heating degree days 642 627  
Since 1 July heating degree days 1185 1133  
Cooling Degree Days 0 0  
Month to date cooling degree days 0 0  
Year to date cooling degree days 1320 942  
Moisture  
Dew Point 28 °F    
Average Humidity 73    
Maximum Humidity 92    
Minimum Humidity 53    
Precipitation  
Precipitation 0.00 in 0.05 in 0.78 in (1971)
Month to date precipitation 1.49 1.16  
Year to date precipitation 8.91 9.99  
Snow  
Snow 0.00 in 0.20 in 4.50 in (1964)
Month to date snowfall 2.0 2.0  
Since 1 July snowfall 2.0 2.1  
Snow Depth 0.00 in    
Sea Level Pressure  
Sea Level Pressure 30.36 in    
Wind  
Wind Speed 2 mph (NE)    
Max Wind Speed 13 mph    
Max Gust Speed 15 mph    
Visibility 8 miles    
Events      
T = Trace of Precipitation, MM = Missing Value Source: NWS Daily Summary

Daily Weather History Graph

Daily Weather History Graph

Search for Another Location

Airport or City:

Trip Planner

Search our weather history database for the weather conditions in past years. The results will help you decide how hot, cold, wet, or windy it might be!

Date:

Astronomy

Nov. 26, 2013 Rise Set
Actual Time 7:52 AM MST 5:11 PM MST
Civil Twilight 7:21 AM MST 5:43 PM MST
Nautical Twilight 6:45 AM MST 6:18 PM MST
Astronomical Twilight 6:11 AM MST 6:53 PM MST
Moon 12:48 AM MST 1:31 PM MST
Length of Visible Light 10h 22m
Length of Day
9h 18m
Last Quarter, 40% of the Moon is Illuminated
Nov 26
Last Quarter
Dec 2
New
Dec 9
First Quarter
Dec 17
Full
Dec 25
Last Quarter

Hourly Weather History & Observations

Time (MST) Temp. Windchill Dew Point Humidity Pressure Visibility Wind Dir Wind Speed Gust Speed Precip Events Conditions
12:53 AM 34.0 °F 25.5 °F 28.9 °F 82% 30.44 in 10.0 mi SE 11.5 mph - N/A   Clear
1:53 AM 35.1 °F 27.4 °F 28.0 °F 76% 30.43 in 10.0 mi SE 10.4 mph - N/A   Clear
2:53 AM 30.0 °F - 28.0 °F 92% 30.44 in 8.0 mi Calm Calm - N/A   Clear
3:53 AM 30.0 °F 26.5 °F 27.0 °F 88% 30.44 in 5.0 mi ENE 3.5 mph - N/A   Clear
4:53 AM 28.0 °F - 25.0 °F 88% 30.44 in 5.0 mi Calm Calm - N/A   Clear
5:53 AM 30.0 °F - 27.0 °F 88% 30.44 in 8.0 mi Calm Calm - N/A   Clear
6:53 AM 28.0 °F - 26.1 °F 92% 30.44 in 5.0 mi Calm Calm - N/A   Clear
7:53 AM 28.9 °F - 26.1 °F 89% 30.44 in 5.0 mi Calm Calm - N/A   Clear
8:53 AM 30.9 °F - 27.0 °F 85% 30.45 in 9.0 mi Calm Calm - N/A   Clear
9:53 AM 36.0 °F - 28.0 °F 73% 30.43 in 10.0 mi Calm Calm - N/A   Clear
10:53 AM 39.9 °F - 28.9 °F 65% 30.41 in 10.0 mi Calm Calm - N/A   Clear
11:53 AM 41.0 °F - 27.0 °F 57% 30.40 in 10.0 mi Calm Calm - N/A   Clear
12:53 PM 43.0 °F - 28.9 °F 58% 30.35 in 10.0 mi Calm Calm - N/A   Clear
1:53 PM 44.1 °F 41.5 °F 28.9 °F 55% 30.32 in 9.0 mi NW 4.6 mph - N/A   Clear
2:53 PM 45.0 °F 42.6 °F 30.0 °F 56% 30.30 in 9.0 mi NNE 4.6 mph - N/A   Clear
3:53 PM 46.0 °F 43.9 °F 30.0 °F 54% 30.28 in 9.0 mi NNE 4.6 mph - N/A   Clear
4:53 PM 43.0 °F - 30.9 °F 62% 30.27 in 8.0 mi Calm Calm - N/A   Clear
5:53 PM 41.0 °F - 30.0 °F 65% 30.26 in 8.0 mi Calm Calm - N/A   Clear
6:53 PM 36.0 °F - 28.9 °F 76% 30.27 in 9.0 mi Calm Calm - N/A   Clear
7:53 PM 34.0 °F 31.0 °F 28.0 °F 79% 30.27 in 7.0 mi West 3.5 mph - N/A   Clear
8:53 PM 32.0 °F - 28.0 °F 85% 30.27 in 5.0 mi Calm Calm - N/A   Clear
9:53 PM 30.0 °F - 27.0 °F 88% 30.28 in 5.0 mi Calm Calm - N/A   Clear
10:53 PM 30.0 °F - 26.1 °F 85% 30.27 in 5.0 mi Calm Calm - N/A   Clear
11:53 PM 28.9 °F - 26.1 °F 89% 30.26 in 5.0 mi Calm Calm - N/A   Clear